Saturday, October 20, 2018, 9:36 PM EDT
Back to Local

KBID, Block Island, Block Island State Airport

Location: Block Island, RI, United States Lat: 41.167
Local Time: 9:36 PM EDT ( 1:36 GMT) Lon: -71.567
Time Zone: US/Eastern Elev: 108 ft

Show me the last for .
Show Decoded

2018-10-20 20:56 METAR KBID 210056Z AUTO 33004KT 10SM SCT029 SCT039 BKN047 14/09 A2961 RMK AO2
                 SLP031 T01390089 =
2018-10-20 19:56 METAR KBID 202356Z AUTO 24007KT 10SM CLR 14/10 A2961 RMK AO2 SLP030 T01440100
                 10161 20144 53007 =
2018-10-20 18:56 METAR KBID 202256Z AUTO 26008KT 10SM CLR 15/10 A2960 RMK AO2 SLP028 T01500100 =
2018-10-20 17:56 METAR KBID 202156Z AUTO 27011G17KT 10SM CLR 15/10 A2959 RMK AO2 SLP025 T01500100
                 =
2018-10-20 16:56 METAR KBID 202056Z AUTO 27010G21KT 10SM CLR 16/11 A2959 RMK AO2 SLP023 T01560111
                 =
2018-10-20 15:56 METAR KBID 201956Z AUTO 27014G20KT 10SM SCT023 16/11 A2961 RMK AO2 SLP029
                 T01560106 =
2018-10-20 15:28 METAR KBID 201928Z AUTO 26012G19KT 10SM SCT023 BKN030 16/11 A2961 RMK AO2 =
2018-10-20 15:18 METAR KBID 201918Z AUTO 27011G22KT 10SM BKN023 BKN030 16/11 A2962 RMK AO2 =
2018-10-20 14:56 METAR KBID 201856Z AUTO 27015G21KT 10SM SCT035 16/11 RMK AO2 SLPNO T01560106 $ =
2018-10-20 14:16 METAR KBID 201816Z AUTO 27014G21KT 10SM SCT022 OVC032 16/11 A2963 RMK AO2 =
2018-10-20 14:08 METAR KBID 201808Z AUTO 26015G21KT 10SM BKN022 BKN028 OVC034 16/11 A2964 RMK AO2
                 =
2018-10-20 13:56 METAR KBID 201756Z AUTO 27016G23KT 10SM SCT020 OVC034 16/12 A2964 RMK AO2 SLP042
                 6//// T01610117 10172 20144 58021 =
2018-10-20 12:56 METAR KBID 201656Z AUTO 26016G22KT 10SM FEW031 SCT070 17/12 A2967 RMK AO2 PK WND
                 26026/1612 SLP050 T01670117 =

Support USWX by starting your Amazon purchase here.